SCP
0 1 1 1 1 1 1 1 1 1 2 2 2 2 1 1 1 1 1 1 1 1 1 1 1 1 2 2 2 2 3 3 3 3 3 3 3 3 3 2 2 2 1
0 1 1 1 1 1 1 1 1 1 1 2 2 2 2 1 1 1 1 1 1 1 1 1 1 2 2 2 2 2 2 3 3 3 3 3 3 3 2 2 2 2 1
0 1 1 1 1 1 1 1 1 1 1 1 1 1 2 2 1 1 1 1 1 1 1 1 2 2 2 2 2 2 2 2 2 3 3 2 2 2 2 2 2 1 1
0 0 1 1 1 1 1 1 1 1 1 1 1 1 1 1 1 1 1 1 1 1 1 1 2 2 2 2 2 1 2 2 2 2 2 2 2 2 2 2 2 1 1
0 0 0 1 1 1 1 1 1 1 1 1 1 1 1 1 1 1 1 1 1 1 1 1 1 2 2 2 1 1 1 2 2 2 1 1 1 1 2 2 2 1 1
0 0 0 1 1 1 1 1 1 1 1 1 1 1 1 1 1 1 1 1 1 1 1 1 1 1 1 1 1 1 1 1 1 1 1 1 1 1 1 1 1 1 1
0 0 0 1 1 1 1 1 1 1 1 1 1 1 1 1 1 1 1 1 1 1 1 1 1 1 1 1 1 1 1 1 1 1 1 1 1 1 1 1 1 1 1
0 0 0 1 1 1 1 1 1 1 1 1 1 1 1 1 1 1 1 1 1 1 1 1 1 1 1 1 1 1 1 1 1 1 1 0 1 1 1 1 1 1 1
0 0 0 1 1 1 1 1 1 1 1 1 1 1 1 1 1 1 1 1 1 1 1 1 1 1 1 1 1 1 1 1 1 1 1 1 1 1 1 1 1 1 1
0 0 0 0 1 1 1 1 1 1 1 1 1 1 1 1 1 1 1 1 1 1 1 1 1 1 1 1 1 1 1 1 1 1 1 1 1 1 1 1 1 1 1
0 0 0 0 1 1 1 1 1 1 1 1 1 1 1 1 1 1 1 1 1 1 1 1 1 1 1 1 1 1 1 1 1 1 1 1 1 1 1 1 1 1 1
0 1 1 1 1 1 1 0 0 1 1 1 1 1 1 0 1 1 1 2 2 1 1 1 1 1 1 1 1 1 1 1 1 1 1 1 1 1 1 1 1 1 1
1 1 1 1 1 1 1 1 1 0 0 0 1 0 0 0 1 1 1 1 1 1 1 1 1 1 1 1 1 1 1 1 1 1 1 1 1 1 1 1 1 1 1
1 1 1 1 1 1 1 1 1 0 0 0 0 0 0 0 1 1 1 1 1 1 1 1 1 1 1 1 1 1 1 1 1 1 1 1 1 1 1 1 1 1 1
1 1 1 1 1 1 0 1 0 0 0 0 0 0 0 0 0 1 1 1 0 1 1 1 1 1 1 1 1 1 1 1 1 1 1 1 2 1 1 1 2 2 1
1 1 1 1 1 1 1 1 1 0 0 0 0 0 0 0 0 0 0 0 0 0 0 1 1 1 1 1 1 1 1 1 1 1 1 1 2 2 2 2 2 2 2
1 1 1 1 1 1 1 1 1 1 1 0 0 0 0 0 0 0 0 0 0 0 0 0 1 1 1 1 1 1 1 1 1 1 1 1 1 2 2 2 3 3 3
0 1 1 1 1 1 1 1 1 1 1 1 0 0 0 0 0 1 0 0 0 0 0 0 0 0 0 1 1 1 1 1 1 1 1 1 1 1 2 2 3 3 4
1 1 1 1 2 2 1 1 1 1 1 1 1 0 0 1 1 1 1 0 0 0 0 0 0 0 0 0 0 0 0 1 1 1 1 1 1 1 1 2 2 3 3
1 1 1 1 1 1 1 1 1 1 1 1 1 1 1 1 1 1 1 1 1 1 1 0 0 0 0 0 0 0 0 0 0 1 1 1 1 1 1 1 2 2 2
1 1 1 1 1 1 1 1 1 1 1 1 1 1 1 1 1 1 1 1 1 1 1 1 1 0 0 0 1 0 0 0 0 0 0 1 1 1 1 1 1 1 1
1 1 1 1 1 1 2 1 1 1 1 1 1 1 1 1 1 1 1 1 1 1 1 1 1 1 1 1 1 1 1 1 1 0 0 1 1 1 1 1 1 1 1
2 2 2 2 2 2 2 2 2 1 1 1 1 1 1 2 2 2 1 1 1 1 1 1 1 1 1 1 1 1 1 1 1 1 1 1 1 1 1 1 1 1 1
2 2 3 3 3 3 3 3 3 2 2 1 1 1 1 2 2 2 2 2 2 2 2 1 2 2 2 2 2 2 2 2 2 1 1 1 1 1 1 1 1 1 1
2 3 3 4 4 4 4 4 3 3 2 2 2 1 2 2 2 2 2 3 3 2 2 2 2 2 2 2 2 2 2 3 3 2 2 2 2 1 1 1 1 1 1
2 3 4 4 4 4 4 4 4 3 2 2 2 2 2 3 3 2 3 3 3 3 3 2 2 2 2 2 2 3 3 3 3 3 3 3 2 2 2 1 1 1 1
Wind_Speed
1 0 5 7 8 9 10 11 11 11 12 13 13 13 13 12 12 13 14 14 14 13 13 13 13 13 15 16 16 16 15 14 14 15 15 15 14 14 13 13 12 8 12
3 1 6 8 10 11 11 11 12 12 12 13 13 13 13 12 12 13 14 14 13 13 13 13 12 13 14 15 15 15 14 14 14 14 14 13 13 13 12 12 11 7 12
4 3 6 9 11 12 12 11 11 12 12 12 13 13 12 12 12 13 13 13 13 13 13 12 12 13 14 14 14 14 13 13 12 12 12 7 8 11 11 11 11 11 11
5 3 5 10 11 11 11 11 11 12 12 12 12 12 12 12 13 13 13 13 12 12 12 12 12 13 14 14 13 13 12 11 12 11 6 5 5 10 11 10 10 10 10
5 4 5 11 11 12 12 11 11 12 12 12 12 12 12 12 13 13 13 12 12 12 12 12 12 12 12 12 11 11 10 11 10 8 4 4 4 9 10 10 10 10 9
5 4 5 11 11 12 12 11 11 12 12 12 12 12 12 12 12 12 12 12 11 11 11 11 11 11 10 10 10 10 9 9 7 5 4 4 4 8 10 10 10 10 9
5 3 5 10 11 12 12 11 11 11 11 11 11 11 11 10 11 11 11 11 11 10 10 10 10 10 9 9 9 9 8 7 5 4 4 4 4 8 10 10 9 9 9
7 4 4 9 10 11 11 11 11 10 10 11 10 10 10 9 9 10 11 11 10 9 9 9 9 9 8 7 8 7 7 6 5 5 4 3 6 8 9 10 9 9 8
7 5 3 3 6 9 10 10 10 10 10 10 10 9 9 9 9 9 9 9 9 8 8 9 8 8 7 7 7 7 6 6 4 3 4 3 6 8 9 9 9 8 8
5 4 3 3 3 3 4 9 9 9 9 9 9 9 9 9 8 9 8 8 8 8 8 7 7 7 6 6 6 5 6 5 4 3 2 4 7 8 9 9 9 9 9
5 3 3 3 3 3 3 6 6 7 7 7 7 8 7 3 4 4 6 7 7 7 6 6 5 5 5 5 5 5 4 2 3 3 2 6 9 9 9 9 9 9 9
5 4 4 4 3 3 4 4 2 3 3 3 3 3 2 2 2 3 5 6 6 5 4 4 3 3 3 2 3 3 2 3 3 3 4 9 10 10 10 9 9 9 9
5 5 4 4 4 4 3 3 2 1 2 2 3 2 2 2 2 2 1 2 2 2 1 1 0 0 1 1 1 2 2 2 2 2 4 9 10 11 10 10 10 9 9
6 5 4 4 4 4 3 3 2 2 2 2 2 2 2 2 2 1 1 0 0 0 1 0 0 0 1 1 2 2 2 2 2 2 4 9 10 10 10 9 9 9 9
6 5 5 5 5 4 3 2 3 2 2 2 2 2 3 2 2 1 1 1 1 1 1 1 1 1 1 1 2 2 3 3 3 3 3 9 10 9 9 9 9 9 8
6 6 5 5 4 4 3 3 3 2 2 2 2 2 2 2 2 2 1 1 1 1 1 1 1 1 1 1 1 1 3 3 3 3 3 5 8 9 9 9 9 9 9
6 6 5 5 4 4 3 3 3 2 2 2 1 2 2 3 3 2 2 1 1 1 1 2 1 1 1 1 1 1 2 3 3 3 3 3 3 7 8 9 9 9 9
7 6 5 6 5 3 3 3 2 2 2 2 1 2 2 2 3 2 2 1 1 1 1 1 1 1 1 1 0 0 1 2 3 3 3 3 2 3 6 8 9 9 9
8 7 5 5 5 4 3 2 2 2 2 1 1 1 2 2 2 2 1 0 1 1 1 1 1 1 0 1 1 1 0 1 1 2 2 3 3 3 3 6 8 9 9
7 7 6 5 4 3 2 2 1 1 1 1 1 1 2 2 2 2 1 0 1 1 1 1 1 0 0 0 1 1 1 1 1 1 2 2 2 3 4 4 4 6 9
7 7 6 5 4 3 2 2 1 1 1 1 1 2 2 2 2 2 1 1 1 1 0 0 1 1 1 1 2 2 3 1 1 1 1 1 2 3 3 3 3 3 3
8 7 6 6 5 4 3 2 2 2 1 1 1 1 2 2 2 2 2 1 1 1 1 1 1 1 1 1 1 1 2 4 3 1 1 1 1 1 2 3 2 3 2
9 9 8 6 6 5 4 2 1 1 1 1 1 0 1 2 2 2 2 2 1 1 1 0 1 1 0 1 1 2 2 2 2 3 2 1 1 1 1 1 2 2 3
10 9 7 7 5 5 4 4 4 3 2 2 2 1 1 1 2 2 1 2 2 1 1 1 1 1 1 1 1 0 2 3 1 2 3 2 2 1 1 1 1 2 2
10 9 7 7 6 5 4 5 4 3 2 2 1 1 1 1 1 1 1 1 1 1 1 1 1 1 1 1 1 1 1 0 1 2 2 3 3 2 1 1 1 1 2
9 8 8 7 6 5 5 5 5 4 3 2 2 2 1 1 1 1 1 1 2 1 2 2 1 1 1 1 1 1 1 1 1 2 2 2 2 3 2 1 1 1 1
Wind_Direction
15 51 94 93 97 95 91 89 88 90 91 93 95 98 100 104 107 110 113 116 117 118 120 121 122 123 123 126 128 129 128 126 127 132 137 136 134 133 131 129 123 120 122
155 130 104 101 102 100 98 95 94 94 95 95 97 99 100 103 107 113 116 118 120 121 122 121 123 125 127 127 128 130 129 127 126 133 136 135 133 131 130 129 126 127 127
121 104 104 104 105 104 101 99 97 96 97 97 99 101 102 104 107 113 118 119 119 120 121 123 124 125 126 127 128 129 131 131 130 131 130 126 132 132 129 128 127 127 128
117 102 106 108 107 107 105 103 102 102 101 101 100 101 103 104 107 114 118 119 119 119 120 124 123 125 128 130 132 133 135 137 134 130 119 122 130 131 130 129 129 130 130
105 97 110 111 110 111 108 106 106 105 104 102 103 104 104 105 107 112 117 118 119 119 120 123 124 128 133 135 137 140 141 141 135 123 112 115 124 135 137 137 136 137 137
112 104 110 113 113 112 110 109 107 107 106 104 105 106 105 106 108 112 116 119 119 121 121 123 126 128 136 140 140 142 142 138 124 120 123 128 136 147 149 148 145 145 147
121 112 115 117 115 114 113 112 110 109 109 108 107 108 108 110 113 115 116 118 119 122 127 129 129 132 136 146 148 150 147 134 125 127 131 133 149 157 159 158 157 154 155
129 122 120 124 118 114 114 114 114 112 111 111 111 110 110 112 116 121 122 123 125 127 131 134 134 135 136 144 150 144 137 134 132 136 131 138 156 164 165 165 164 163 166
127 121 113 120 119 119 116 115 115 114 111 110 111 110 113 115 118 125 127 128 128 131 133 135 137 142 141 137 140 139 138 139 131 137 149 149 163 171 171 170 168 170 174
117 119 118 114 112 109 113 114 114 114 113 108 109 115 118 119 120 123 127 132 132 132 132 136 141 146 146 142 144 144 144 141 139 146 156 171 175 177 178 178 180 185 185
113 118 127 125 121 119 123 120 112 111 110 107 106 114 113 104 106 119 134 135 137 142 144 144 150 154 156 153 157 157 150 144 151 161 170 181 184 186 187 184 187 191 191
126 133 132 126 125 123 123 111 100 101 92 88 88 96 93 100 114 125 132 144 144 147 151 156 171 169 167 148 155 163 147 152 164 172 182 185 188 189 191 191 191 194 196
139 130 124 126 119 113 107 112 96 82 80 73 78 91 91 86 90 93 97 115 121 142 131 109 351 163 150 158 167 162 155 154 165 175 183 185 189 192 195 196 197 200 203
131 129 128 120 105 102 105 110 110 102 95 89 84 91 93 89 87 95 96 87 79 68 89 35 51 85 130 146 167 164 155 162 168 169 187 191 193 195 198 197 200 205 206
128 131 128 116 110 104 97 102 108 111 111 108 96 94 109 113 111 108 95 74 66 102 125 121 86 96 135 153 175 167 170 178 180 176 188 194 195 197 200 202 205 207 208
134 136 132 120 117 110 105 100 106 117 112 102 101 105 107 113 115 115 96 77 59 84 130 124 115 111 133 144 166 171 168 177 184 184 190 196 197 198 205 208 207 205 207
137 134 135 132 121 118 115 111 112 119 115 105 114 107 109 111 113 112 99 79 72 83 91 89 71 68 74 112 186 212 180 187 185 188 193 197 203 206 208 209 209 210 212
144 142 150 141 128 122 117 111 111 114 120 123 119 112 116 112 113 104 97 92 75 69 69 84 81 61 29 38 336 274 201 193 190 195 197 198 203 214 215 215 213 215 217
154 151 151 137 139 140 126 112 112 118 125 140 124 120 129 123 115 112 120 124 58 61 53 81 72 99 55 344 313 337 315 220 216 196 197 202 207 210 217 223 220 220 223
156 152 146 142 149 144 119 88 73 80 106 140 153 153 154 138 129 123 131 116 75 74 47 50 74 54 137 268 347 7 317 252 246 229 223 212 213 214 216 222 223 227 227
155 151 150 149 160 147 130 132 132 155 169 172 196 181 175 165 148 137 138 119 98 115 156 91 100 55 355 18 44 4 345 335 301 249 240 225 230 230 214 217 219 226 235
165 165 162 163 167 170 169 168 170 167 191 199 207 177 182 177 174 159 155 163 136 123 76 59 94 77 331 30 100 62 357 347 340 314 290 222 247 245 219 210 199 210 221
170 172 171 173 173 177 170 145 117 78 49 44 52 216 221 192 179 161 156 161 158 145 155 172 137 135 248 308 130 138 145 245 310 327 327 319 285 263 246 214 201 216 215
178 173 167 169 173 178 165 154 157 159 175 203 201 205 228 190 185 174 159 163 172 162 174 221 169 169 158 271 296 230 184 174 173 307 324 327 322 308 279 258 217 212 207
176 172 169 166 175 180 173 172 168 174 190 195 184 183 205 227 218 196 173 167 179 182 191 223 251 181 172 185 218 243 253 174 163 182 285 313 326 306 285 275 248 240 221
172 171 170 168 178 180 178 177 174 181 182 176 188 191 212 232 249 241 175 175 185 190 198 215 227 223 230 210 209 184 174 185 215 186 231 274 291 298 305 304 283 263 248